Tracking 19575 objects as of 20-Feb-2019
HD Live streaming from Space Station
objects crossing your sky now

RADUGA 20

Track RADUGA 20 now!
RADUGA 20 is classified as:


NORAD ID: 17611
Int'l Code: 1987-028A
Perigee: 36,944.1 km
Apogee: 37,149.7 km
Inclination: 16.6 °
Period: 1,500.6 minutes
Semi major axis: 43417 km
RCS: 2.0634 m2 (large)
Launch date: March 19, 1987
Source: Commonwealth of Independent States (former USSR) (CIS)
Launch site: TYURATAM MISSILE AND SPACE COMPLEX (TTMTR)
aabbcc
Your satellite tracking list
Your tracking list is empty




NASA's NSSDC Master Catalog

Two Line Element Set (TLE):
1 17611U 87028A   19051.43093375 -.00000123  00000-0  00000+0 0  9997
2 17611  16.6278 350.1914 0023674  98.4986 150.1278  0.95962082112635
Source of the keplerian elements: AFSPC